Location: Seven Kings
(51.5667°N, 0.1000°E)
Time: 12:00:12
(UTC+00:00)

Cosmos 1315 Rocket - Pass Details

Date: 29 October 2020
Orbit: 530 x 567 km, 81.2° (Epoch: 24 November)

Event Time Altitude Azimuth Distance (km) Brightness Sun altitude
Rises 19:17:42 0° 211° (SSW) 2,686 6.6 -25.4°
Reaches altitude 10° 19:19:57 10° 219° (SW) 1,805 5.8 -25.7°
Maximum altitude 19:23:42 39° 289° (WNW) 831 4.1 -26.3°
Drops below altitude 10° 19:27:31 10° 360° (N) 1,841 5.6 -26.9°
Enters shadow 19:27:50 - 1° (N) 1,958 5.7 -26.9°
